Location: Miles
(41.4492°N, 81.6087°W)
Time: 13:50:28
(UTC+00:00)

Courier 1B - Pass Details

Date: 20 September 2024
Orbit: 962 x 1208 km, 28.3° (Epoch: 06 October)

Event Time Altitude Azimuth Distance (km) Brightness Sun altitude
Rises 21:30:36 0° 257° (WSW) 3,883 12.2 20.5°
Reaches altitude 10° 21:34:04 10° 242° (WSW) 2,970 12.1 19.9°
Maximum altitude 21:39:12 21° 197° (SSW) 2,332 10.1 19.0°
Drops below altitude 10° 21:44:32 10° 152° (SSE) 3,081 10.0 18.0°
Sets 21:48:13 0° 137° (SE) 4,071 10.5 17.3°
